Amsterdam, Netherlands

10:44 PM CET on December 08, 2019 (GMT +0100)
Schiphol

Weather History for EHAM - October, 2019

Change the Weather History Date:

Monday, October 28, 2019

  Actual Average Record
Temperature  
Mean Temperature 47 °F -  
Max Temperature 55 °F 49 °F 66 °F (2005)
Min Temperature 39 °F 39 °F 30 °F (1997)
Degree Days  
Heating Degree Days 18    
Moisture  
Dew Point 41 °F    
Average Humidity 80    
Maximum Humidity 100    
Minimum Humidity 52    
Precipitation  
Precipitation 0.03 in - - ()
Sea Level Pressure  
Sea Level Pressure 30.22 in    
Wind  
Wind Speed 4 mph ()    
Max Wind Speed 14 mph    
Max Gust Speed -    
Visibility 7.1 miles    
Events Rain    
Averages and records for this station are not official NWS values.
T = Trace of Precipitation, MM = Missing Value Source: Averaged Metar Reports

Daily Weather History Graph

Daily Weather History Graph

Search for Another Location

Airport or City:

Astronomy

Oct. 28, 2019 Rise Set
Actual Time 7:28 AM CET 5:20 PM CET
Civil Twilight 6:53 AM CET 5:55 PM CET
Nautical Twilight 6:13 AM CET 6:35 PM CET
Astronomical Twilight 5:33 AM CET 7:14 PM CET
Moon 7:25 AM CET (10/28) 5:57 PM CET (10/28)
Length of Visible Light 11h 02m
Length of Day
9h 51m
New Moon, 0% of the Moon is Illuminated
Oct 28
New Moon
Nov 4
First Quarter
Nov 12
Full
Nov 19
Last Quarter
Nov 26
New

Hourly Weather History & Observations

Time (CET) Temp. Windchill Dew Point Humidity Pressure Visibility Wind Dir Wind Speed Gust Speed Precip Events Conditions
12:25 AM 44.6 °F 40.7 °F 39.2 °F 81% 30.21 in 6.2 mi WNW 6.9 mph - N/A   Partly Cloudy
12:55 AM 44.6 °F 40.7 °F 39.2 °F 81% 30.21 in 6.2 mi NW 6.9 mph - N/A   Partly Cloudy
1:00 AM 43 °F - 38 °F 78% 30.22 in 25 mi NW 6.7 mph - -   Partly Cloudy
1:25 AM 42.8 °F 39.3 °F 39.2 °F 87% 30.21 in 6.2 mi WNW 5.8 mph - N/A   Partly Cloudy
1:55 AM 42.8 °F 39.3 °F 39.2 °F 87% 30.21 in 6.2 mi WNW 5.8 mph - N/A   Partly Cloudy
2:00 AM 44 °F - 39 °F 76% 30.22 in 22 mi West 4.5 mph - -   Partly Cloudy
2:25 AM 44.6 °F 43.1 °F 39.2 °F 81% 30.21 in 6.2 mi WNW 3.5 mph - N/A   Partly Cloudy
2:55 AM 44.6 °F 41.4 °F 39.2 °F 81% 30.21 in 6.2 mi West 5.8 mph - N/A   Partly Cloudy
3:00 AM 43 °F - 38 °F 76% 30.22 in 28 mi WNW 6.7 mph - -   Partly Cloudy
3:25 AM 42.8 °F 40.1 °F 39.2 °F 87% 30.21 in 6.2 mi NW 4.6 mph - N/A   Partly Cloudy
3:55 AM 42.8 °F 40.1 °F 41.0 °F 93% 30.18 in 6.2 mi NW 4.6 mph - N/A   Partly Cloudy
4:00 AM 43 °F - 40 °F 85% 30.21 in 25 mi NNW 2.2 mph - -   Partly Cloudy
4:25 AM 42.8 °F - 41.0 °F 93% 30.21 in 6.2 mi Variable 2.3 mph - N/A   Partly Cloudy
4:55 AM 41.0 °F - 41.0 °F 100% 30.21 in 6.2 mi Variable 2.3 mph - N/A   Partly Cloudy
5:00 AM 42 °F - 41 °F 94% 30.22 in 22 mi East 2.2 mph - -   Partly Cloudy
5:25 AM 42.8 °F - 42.8 °F 100% 30.21 in 6.2 mi Variable 2.3 mph - N/A   Partly Cloudy
5:55 AM 41.0 °F - 39.2 °F 93% 30.21 in 6.2 mi Variable 2.3 mph - N/A   Partly Cloudy
6:25 AM 41.0 °F 39.0 °F 39.2 °F 93% 30.21 in 6.2 mi South 3.5 mph - N/A   Partly Cloudy
6:55 AM 41.0 °F 39.0 °F 39.2 °F 93% 30.21 in 6.2 mi SE 3.5 mph - N/A   Scattered Clouds
7:00 AM 40 °F - 39 °F 96% 30.22 in 22 mi SE 2.2 mph - -   Partly Cloudy
7:25 AM 41.0 °F - 41.0 °F 100% 30.21 in 6.2 mi ESE 2.3 mph - N/A   Partly Cloudy
7:55 AM 41.0 °F - 41.0 °F 100% 30.21 in 6.2 mi SSE 1.2 mph - N/A Rain Light Rain Showers
8:00 AM 42 °F - 41 °F 96% 30.23 in 9 mi South 2.2 mph - - Rain Drizzle
8:25 AM 42.8 °F 41.1 °F 41.0 °F 93% 30.21 in 6.2 mi SSE 3.5 mph - N/A   Partly Cloudy
8:55 AM 44.6 °F - 44.6 °F 100% 30.21 in 6.2 mi SSE 2.3 mph - N/A   Partly Cloudy
9:00 AM 47 °F - 44 °F 87% 30.24 in 17 mi SE 2.2 mph - - Rain Drizzle
9:25 AM 50.0 °F - 46.4 °F 87% 30.24 in 5.0 mi Variable 2.3 mph - N/A Rain Light Rain Showers
9:55 AM 50.0 °F - 46.4 °F 87% 30.24 in 5.6 mi SSW 5.8 mph - N/A Rain Light Rain Showers
10:25 AM 50.0 °F - 46.4 °F 87% 30.24 in 6.2 mi Variable 2.3 mph - N/A   Partly Cloudy
10:55 AM 51.8 °F - 46.4 °F 82% 30.24 in 6.2 mi North 3.5 mph - N/A   Partly Cloudy
11:00 AM 53 °F - 44 °F 63% 30.25 in 16 mi NNE 2.2 mph - - Rain Rain
11:25 AM 53.6 °F - 44.6 °F 72% 30.24 in 6.2 mi NNE 3.5 mph - N/A   Partly Cloudy
11:55 AM 55.4 °F - 42.8 °F 63% 30.24 in 6.2 mi North 3.5 mph - N/A   Scattered Clouds
12:00 PM 54 °F - 42 °F 55% 30.24 in - NNE 4.5 mph - -   Scattered Clouds
12:25 PM 53.6 °F - 44.6 °F 72% 30.24 in 6.2 mi NW 6.9 mph - N/A   Scattered Clouds
12:55 PM 51.8 °F - 42.8 °F 71% 30.21 in 6.2 mi NNW 13.8 mph - N/A   Scattered Clouds
1:00 PM 52 °F - 43 °F 63% 30.24 in 22 mi NNW 13.4 mph - -   Clear
1:25 PM 55.4 °F - 42.8 °F 63% 30.21 in 6.2 mi North 6.9 mph - N/A   Scattered Clouds
1:55 PM 53.6 °F - 42.8 °F 67% 30.21 in 6.2 mi NNW 8.1 mph - N/A   Scattered Clouds
2:25 PM 53.6 °F - 41.0 °F 62% 30.21 in 6.2 mi NNW 9.2 mph - N/A   Scattered Clouds
2:55 PM 53.6 °F - 42.8 °F 67% 30.21 in 6.2 mi NNW 9.2 mph - N/A   Partly Cloudy
3:00 PM 53 °F - 40 °F 52% 30.23 in 22 mi NNW 8.9 mph - -   Partly Cloudy
3:25 PM 53.6 °F - 41.0 °F 62% 30.21 in 6.2 mi NNW 8.1 mph - N/A   Partly Cloudy
3:55 PM 51.8 °F - 41.0 °F 67% 30.21 in 6.2 mi NNW 10.4 mph - N/A   Partly Cloudy
4:00 PM 52 °F - 41 °F 57% 30.22 in 22 mi NNW 8.9 mph - -   Partly Cloudy
4:25 PM 51.8 °F - 41.0 °F 67% 30.21 in 6.2 mi NNW 8.1 mph - N/A   Partly Cloudy
4:55 PM 48.2 °F - 39.2 °F 71% 30.21 in 6.2 mi NNW 5.8 mph - N/A   Partly Cloudy
5:00 PM 48 °F - 40 °F 64% 30.22 in 28 mi NNW 4.5 mph - -   Partly Cloudy
5:25 PM 48.2 °F - 39.2 °F 71% 30.21 in 6.2 mi NNW 3.5 mph - N/A   Partly Cloudy
5:55 PM 48.2 °F - 41.0 °F 76% 30.21 in 6.2 mi NNE 3.5 mph - N/A   Partly Cloudy
6:00 PM 48 °F - 40 °F 67% 30.22 in 28 mi NNE 4.5 mph - -   Partly Cloudy
6:25 PM 48.2 °F - 41.0 °F 76% 30.21 in 6.2 mi NNE 2.3 mph - N/A   Partly Cloudy
6:55 PM 48.2 °F - 41.0 °F 76% 30.21 in 6.2 mi NNE 1.2 mph - N/A   Partly Cloudy
7:00 PM 47 °F - 41 °F 73% 30.23 in 19 mi Calm Calm - -   Partly Cloudy
7:25 PM 46.4 °F - 41.0 °F 81% 30.21 in 6.2 mi NNE 2.3 mph - N/A   Partly Cloudy
7:55 PM 46.4 °F 45.2 °F 41.0 °F 81% 30.21 in 6.2 mi NNE 3.5 mph - N/A   Partly Cloudy
8:00 PM 46 °F - 40 °F 74% 30.23 in 25 mi NNE 4.5 mph - -   Partly Cloudy
8:55 PM 46.4 °F - 41.0 °F 81% 30.21 in 6.2 mi WNW 2.3 mph - N/A   Partly Cloudy
9:25 PM 44.6 °F - 41.0 °F 87% 30.21 in - NW 2.3 mph - N/A   Clear
9:55 PM 42.8 °F - 41.0 °F 93% 30.21 in - NNW 2.3 mph - N/A   Clear
10:25 PM 44.6 °F 43.1 °F 41.0 °F 87% 30.21 in - NNW 3.5 mph - N/A   Clear
10:55 PM 41.0 °F 39.0 °F 39.2 °F 93% 30.21 in 6.2 mi North 3.5 mph - N/A   Partly Cloudy
11:00 PM 42 °F - 41 °F 93% 30.23 in 16 mi North 2.2 mph - -   Partly Cloudy
11:25 PM 42.8 °F - 41.0 °F 93% 30.21 in 6.2 mi Variable 2.3 mph - N/A   Partly Cloudy